Аулиеколь

Казахстан     52°21′49″N   64°08′07″E
темп.,
°C
ветер,
м/с
пор.,
м/с
влажн.,
%
обл.,
%
осадки,
мм/ч
давл.,
гПа
погр.,
м
1 марта, пн
пн123:000зюз51097100 1.4 1004466
02:00−5ссз469692 0.3 1006169
05:00−10ссз469593 0.4 1008110
08:00−12ссз359590 0.1 101089
11:00−11ссз349386 0.1 1013267
14:00−10ссз238797 0.1 1015381
17:00−11ссз239499 0.1 101682
20:00−16ссз2295100 0.0 101720
2 марта, вт
вт223:00−17зсз129695 0.1 101820
02:00−15з129693 0.1 101720
05:00−15зюз129697 0.3 101729
08:00−15юз229694 0.1 101628
11:00−13ююз359384 0.2 1016247
14:00−11юз579193 0.0 1015388
17:00−13юз598994 0.1 1015382
20:00−19ююз59930 0.0 1015151
3 марта, ср
ср323:00−20ююз5109313 0.0 1015179
02:00−14юз6129368 0.1 1014427
05:00−12ююз7139184 0.3 1013466
08:00−10ююз81491100 0.1 1011499
11:00−7ююз101588100 0.2 1010686
14:00−3юз101591100 0.3 1009961
17:00−2юз91493100 0.8 1008943
20:00−2юз91593100 0.4 1007785
4 марта, чт
чт423:00−2ююз81593100 0.6 1007699
02:00−1ююз91495100 0.5 1004742
05:00−1юз71396100 1.4 1003695
08:00−1юз71295100 0.8 1002656
11:00−1зюз81292100 0.9 1003709
14:00−1зсз6893100 0.4 1005562
17:00−6зсз598684 0.4 1006266
20:00−11зсз58890 0.0 1009116
5 марта, пт
пт523:00−12зюз58870 0.0 1012112
02:00−12зюз612880 0.0 1012205
05:00−11юз817856 0.0 1013361
08:00−9юз9188781 0.0 1012546
11:00−4юз11188590 0.0 1012887
14:00−2юз121882100 0.0 10121123
17:00−1юз111784100 0.1 10131127
20:00−2зюз101687100 0.1 1014921